This is the latest recevied weather packets stored in our database for station/object DL9GRB-13. If no packets are shown the sender has not sent any weather packets the latest 10 day(s).
| Time | Temp. | Humidity | Pressure | Rain* | Wind** | Luminosity | Snow |
|---|---|---|---|---|---|---|---|
| 1778217549 | 7.78° C | 70% | 1019.8 hPa | 0 mm | - | 83 W/m² | - |
| 1778217369 | 7.22° C | 72% | 1019.8 hPa | 0 mm | - | 82 W/m² | - |
| 1778217189 | 6.67° C | 74% | 1020.1 hPa | 0 mm | - | 81 W/m² | - |
| 1778217009 | 6.67° C | 75% | 1019.9 hPa | 0 mm | - | 79 W/m² | - |
| 1778216829 | 6.11° C | 77% | 1020.1 hPa | 0 mm | - | 77 W/m² | - |
| 1778216649 | 5.56° C | 80% | 1019.9 hPa | 0 mm | - | 75 W/m² | - |
| 1778216469 | 5° C | 83% | 1019.9 hPa | 0 mm | - | 72 W/m² | - |
| 1778216289 | 4.44° C | 85% | 1019.9 hPa | 0 mm | - | 70 W/m² | - |
| 1778216109 | 4.44° C | 88% | 1019.9 hPa | 0 mm | - | 68 W/m² | - |
| 1778215929 | 3.89° C | 91% | 1019.9 hPa | 0 mm | - | 66 W/m² | - |
| 1778215749 | 3.33° C | 94% | 1019.9 hPa | 0 mm | - | 63 W/m² | - |
| 1778215569 | 2.78° C | 96% | 1020 hPa | 0 mm | - | 61 W/m² | - |
| 1778215389 | 2.78° C | 97% | 1019.8 hPa | 0 mm | - | 58 W/m² | - |
| 1778215209 | 2.22° C | 97% | 1019.8 hPa | 0 mm | - | 55 W/m² | - |
| 1778215029 | 1.67° C | 97% | 1020 hPa | 0 mm | - | 52 W/m² | - |
| 1778214849 | 1.11° C | 97% | 1019.9 hPa | 0 mm | - | 50 W/m² | - |
| 1778214669 | 0.56° C | 96% | 1019.8 hPa | 0 mm | - | 48 W/m² | - |
| 1778214489 | 0.56° C | 96% | 1019.8 hPa | 0 mm | - | 42 W/m² | - |
| 1778214309 | 0.56° C | 96% | 1019.6 hPa | 0 mm | - | 29 W/m² | - |
| 1778214129 | 0.56° C | 96% | 1019.8 hPa | 0 mm | - | 22 W/m² | - |
| 1778213949 | 0.56° C | 96% | 1019.8 hPa | 0 mm | - | 22 W/m² | - |
| 1778213769 | 0.56° C | 96% | 1019.8 hPa | 0 mm | - | 21 W/m² | - |
| 1778213589 | 0° C | 96% | 1019.7 hPa | 0 mm | - | 20 W/m² | - |
| 1778213409 | 0° C | 96% | 1019.9 hPa | 0 mm | - | 19 W/m² | - |
| 1778213229 | 0° C | 96% | 1019.8 hPa | 0 mm | - | 18 W/m² | - |
* Rain latest hour (hover to see other rain measurements)
** Current wind speed in m/s (hover to see current wind gust speed)